�������l�o���
Date,Time,MP-1(��Sv/h),MP-2(��Sv/h),MP-3(��Sv/h),MP-4(��Sv/h),MP-5(��Sv/h),MP-6(��Sv/h),MP-7(��Sv/h),MP-8(��Sv/h),����,����(m/s),���J
2017/09/19,00:00,0.925,1.456,0.949,1.757,1.176,0.510,0.932,0.858,��,2.0,��
2017/09/19,00:10,0.927,1.458,0.947,1.757,1.176,0.509,0.933,0.859,��,5.1,��
2017/09/19,00:20,0.927,1.457,0.945,1.757,1.174,0.511,0.930,0.859,���k��,4.0,��
2017/09/19,00:30,0.925,1.458,0.947,1.758,1.174,0.507,0.932,0.859,���k��,4.0,��
2017/09/19,00:40,0.925,1.458,0.949,1.757,1.176,0.508,0.932,0.858,���k��,4.3,��
2017/09/19,00:50,0.926,1.457,0.949,1.758,1.177,0.507,0.932,0.858,���k��,1.5,��
2017/09/19,01:00,0.924,1.458,0.951,1.759,1.174,0.508,0.932,0.859,�k��,2.0,��
2017/09/19,01:10,0.925,1.459,0.948,1.755,1.176,0.509,0.932,0.859,�k�k��,0.6,��
2017/09/19,01:20,0.925,1.459,0.950,1.755,1.176,0.508,0.932,0.858,���k��,1.4,��
2017/09/19,01:30,0.926,1.458,0.949,1.757,1.176,0.507,0.931,0.858,��,1.1,��
2017/09/19,01:40,0.924,1.459,0.949,1.756,1.176,0.509,0.932,0.859,���k��,0.9,��
2017/09/19,01:50,0.926,1.457,0.947,1.754,1.176,0.510,0.931,0.859,�k��,1.4,��
2017/09/19,02:00,0.925,1.460,0.950,1.755,1.176,0.509,0.932,0.858,�k��,0.9,��
2017/09/19,02:10,0.926,1.459,0.948,1.754,1.176,0.508,0.932,0.860,�k��,0.9,��
2017/09/19,02:20,0.925,1.457,0.950,1.757,1.181,0.509,0.935,0.861,��,1.7,��
2017/09/19,02:30,0.925,1.457,0.948,1.756,1.176,0.510,0.933,0.860,�쓌,0.9,��
2017/09/19,02:40,0.926,1.457,0.949,1.756,1.176,0.509,0.934,0.859,���쓌,1.4,��
2017/09/19,02:50,0.926,1.459,0.949,1.756,1.177,0.508,0.932,0.859,��쐼,1.4,��
2017/09/19,03:00,0.925,1.459,0.949,1.755,1.176,0.510,0.932,0.859,-,CALM,��
2017/09/19,03:10,0.925,1.458,0.950,1.758,1.177,0.510,0.931,0.860,�k��,1.4,��
2017/09/19,03:20,0.924,1.457,0.948,1.757,1.176,0.511,0.935,0.859,�k,2.2,��
2017/09/19,03:30,0.929,1.460,0.951,1.759,1.176,0.508,0.932,0.860,�k�k��,4.9,��
2017/09/19,03:40,0.928,1.461,0.949,1.756,1.176,0.509,0.932,0.861,�k�k��,4.8,��
2017/09/19,03:50,0.928,1.458,0.951,1.759,1.178,0.509,0.933,0.858,�k��,4.9,��
2017/09/19,04:00,0.927,1.459,0.947,1.756,1.180,0.508,0.931,0.862,�k�k��,4.3,��
2017/09/19,04:10,0.928,1.460,0.949,1.756,1.179,0.509,0.932,0.860,�k�k��,3.6,��
2017/09/19,04:20,0.925,1.459,0.953,1.760,1.178,0.509,0.931,0.858,�k�k��,3.4,��
2017/09/19,04:30,0.926,1.459,0.950,1.759,1.178,0.508,0.933,0.859,�k�k��,4.0,��
2017/09/19,04:40,0.926,1.458,0.949,1.759,1.180,0.508,0.932,0.859,�k�k��,2.5,��
2017/09/19,04:50,0.925,1.460,0.950,1.758,1.178,0.508,0.934,0.860,�k��,1.2,��
2017/09/19,05:00,0.926,1.458,0.950,1.760,1.178,0.509,0.934,0.861,�k�k��,0.9,��
2017/09/19,05:10,0.925,1.461,0.948,1.760,1.178,0.509,0.930,0.859,��,1.2,��
2017/09/19,05:20,0.928,1.462,0.949,1.760,1.179,0.507,0.932,0.858,���쓌,0.9,��
2017/09/19,05:30,0.928,1.462,0.949,1.758,1.179,0.508,0.933,0.859,��,1.2,��
2017/09/19,05:40,0.927,1.460,0.950,1.760,1.180,0.507,0.932,0.859,��,0.6,��
2017/09/19,05:50,0.925,1.460,0.949,1.758,1.177,0.509,0.932,0.859,�k��,1.1,��
2017/09/19,06:00,0.926,1.461,0.951,1.759,1.181,0.508,0.932,0.860,�k�k��,0.6,��
2017/09/19,06:10,0.923,1.460,0.950,1.758,1.178,0.508,0.932,0.860,�k,0.6,��
2017/09/19,06:20,0.927,1.461,0.951,1.756,1.180,0.509,0.930,0.860,�k,0.6,��
2017/09/19,06:30,0.925,1.460,0.948,1.758,1.178,0.510,0.931,0.861,�k�k��,0.8,��
2017/09/19,06:40,0.926,1.460,0.953,1.761,1.181,0.509,0.931,0.857,��,2.0,��
2017/09/19,06:50,0.925,1.461,0.950,1.758,1.177,0.508,0.932,0.859,���k��,2.3,��
2017/09/19,07:00,0.927,1.460,0.951,1.760,1.181,0.508,0.932,0.860,��,2.0,��
2017/09/19,07:10,0.920,1.462,0.948,1.758,1.181,0.508,0.933,0.859,��,1.7,��
2017/09/19,07:20,0.926,1.463,0.951,1.760,1.179,0.508,0.932,0.860,��,1.4,��
2017/09/19,07:30,0.926,1.462,0.951,1.760,1.180,0.508,0.933,0.860,���쐼,0.9,��
2017/09/19,07:40,0.921,1.461,0.951,1.762,1.182,0.508,0.932,0.860,�k��,1.5,��
2017/09/19,07:50,0.926,1.457,0.951,1.760,1.179,0.508,0.932,0.860,���k��,0.8,��
2017/09/19,08:00,0.925,1.456,0.951,1.761,1.180,0.506,0.933,0.859,�쐼,1.1,��
2017/09/19,08:10,0.922,1.459,0.952,1.762,1.180,0.506,0.930,0.860,��,0.8,��
2017/09/19,08:20,0.925,1.458,0.952,1.760,1.181,0.506,0.932,0.860,�쓌,0.6,��
2017/09/19,08:30,0.927,1.461,0.950,1.761,1.180,0.507,0.930,0.859,��쓌,0.9,��
2017/09/19,08:40,0.927,1.457,0.950,1.761,1.180,0.506,0.931,0.857,���쓌,0.9,��
2017/09/19,08:50,0.927,1.462,0.949,1.762,1.180,0.507,0.931,0.857,���k��,1.7,��
2017/09/19,09:00,0.924,1.459,0.951,1.763,1.184,0.509,0.932,0.858,��,1.1,��
2017/09/19,09:10,0.923,1.461,0.948,1.763,1.182,0.508,0.931,0.858,���쓌,1.4,��
2017/09/19,09:20,0.927,1.460,0.950,1.761,1.181,0.508,0.931,0.859,�쓌,1.9,��
2017/09/19,09:30,0.928,1.460,0.951,1.763,1.182,0.507,0.931,0.858,�쓌,2.0,��
2017/09/19,09:40,0.926,1.460,0.947,1.763,1.184,0.507,0.932,0.857,�쓌,2.8,��
2017/09/19,09:50,0.924,1.458,0.948,1.759,1.183,0.507,0.932,0.858,�쓌,3.4,��
2017/09/19,10:00,0.927,1.459,0.947,1.760,1.182,0.507,0.934,0.859,�쓌,3.3,��
2017/09/19,10:10,0.926,1.463,0.948,1.763,1.185,0.508,0.934,0.858,��쓌,3.5,��
2017/09/19,10:20,0.928,1.462,0.951,1.765,1.186,0.507,0.934,0.859,�쓌,4.1,��
2017/09/19,10:30,0.928,1.463,0.950,1.765,1.188,0.508,0.933,0.860,��쓌,4.3,��
2017/09/19,10:40,0.929,1.461,0.951,1.766,1.185,0.508,0.934,0.857,��쓌,3.8,��
2017/09/19,10:50,0.929,1.462,0.950,1.767,1.185,0.509,0.935,0.860,�쓌,3.7,��
2017/09/19,11:00,0.930,1.462,0.951,1.763,1.189,0.509,0.933,0.860,�쓌,4.4,��
2017/09/19,11:10,0.929,1.466,0.952,1.765,1.191,0.509,0.934,0.858,�쓌,4.3,��
2017/09/19,11:20,0.928,1.464,0.951,1.769,1.189,0.509,0.934,0.858,��쓌,5.3,��
2017/09/19,11:30,0.933,1.464,0.951,1.769,1.190,0.510,0.933,0.859,��쓌,5.3,��
2017/09/19,11:40,0.928,1.465,0.951,1.765,1.189,0.509,0.935,0.860,�쓌,5.2,��
2017/09/19,11:50,0.932,1.470,0.953,1.766,1.190,0.510,0.934,0.859,-,CALM,��
2017/09/19,12:00,0.931,1.471,0.953,1.766,1.192,0.509,0.934,0.858,��쓌,5.7,��
2017/09/19,12:10,0.931,1.474,0.957,1.765,1.194,0.510,0.934,0.861,��쓌,5.6,��
2017/09/19,12:20,0.933,1.470,0.955,1.767,1.194,0.511,0.934,0.859,��쓌,5.5,��
2017/09/19,12:30,0.934,1.470,0.957,1.769,1.194,0.510,0.936,0.862,��쓌,5.6,��
2017/09/19,12:40,0.933,1.477,0.958,1.768,1.194,0.508,0.934,0.860,��쓌,6.5,��
2017/09/19,12:50,0.933,1.477,0.957,1.767,1.193,0.512,0.936,0.859,��쓌,5.2,��
2017/09/19,13:00,0.934,1.477,0.957,1.767,1.194,0.509,0.936,0.860,��쓌,6.3,��
2017/09/19,13:10,0.934,1.476,0.957,1.770,1.195,0.512,0.937,0.861,��쓌,6.3,��
2017/09/19,13:20,0.935,1.474,0.958,1.768,1.197,0.510,0.937,0.859,��쓌,5.6,��
2017/09/19,13:30,0.935,1.474,0.957,1.770,1.195,0.511,0.937,0.859,��쓌,6.4,��
2017/09/19,13:40,0.934,1.475,0.958,1.770,1.198,0.512,0.937,0.862,��쓌,6.1,��
2017/09/19,13:50,0.936,1.476,0.958,1.771,1.197,0.512,0.936,0.859,��쓌,6.2,��
2017/09/19,14:00,0.936,1.475,0.961,1.768,1.194,0.511,0.937,0.860,��쓌,6.1,��
2017/09/19,14:10,0.935,1.476,0.959,1.772,1.197,0.513,0.935,0.861,��쓌,5.6,��
2017/09/19,14:20,0.936,1.477,0.958,1.770,1.196,0.512,0.936,0.859,��쓌,6.0,��
2017/09/19,14:30,0.936,1.478,0.957,1.769,1.198,0.513,0.936,0.860,��쓌,5.9,��
2017/09/19,14:40,0.936,1.476,0.956,1.772,1.197,0.512,0.935,0.860,��쓌,4.9,��
2017/09/19,14:50,0.937,1.479,0.958,1.771,1.198,0.513,0.939,0.860,��쓌,6.0,��
2017/09/19,15:00,0.934,1.477,0.958,1.769,1.199,0.514,0.936,0.862,��쓌,6.3,��
2017/09/19,15:10,0.935,1.480,0.961,1.771,1.199,0.515,0.937,0.860,��쓌,5.7,��
2017/09/19,15:20,0.931,1.478,0.960,1.770,1.199,0.513,0.937,0.860,��쓌,6.3,��
2017/09/19,15:30,0.937,1.479,0.958,1.770,1.199,0.514,0.936,0.861,��쓌,7.1,��
2017/09/19,15:40,0.935,1.481,0.959,1.768,1.197,0.513,0.935,0.860,��쓌,8.0,��
2017/09/19,15:50,0.933,1.476,0.959,1.767,1.199,0.514,0.935,0.860,��쓌,8.2,��
2017/09/19,16:00,0.935,1.478,0.959,1.767,1.202,0.513,0.936,0.860,��쓌,8.2,��
2017/09/19,16:10,0.935,1.477,0.957,1.770,1.198,0.514,0.936,0.860,��,6.5,��
2017/09/19,16:20,0.939,1.480,0.961,1.768,1.200,0.512,0.934,0.861,��쓌,6.7,��
2017/09/19,16:30,0.935,1.479,0.960,1.768,1.202,0.514,0.936,0.861,��,6.8,��
2017/09/19,16:40,0.935,1.481,0.959,1.770,1.199,0.512,0.935,0.858,��,5.3,��
2017/09/19,16:50,0.937,1.484,0.961,1.770,1.201,0.513,0.935,0.860,��,6.7,��
2017/09/19,17:00,0.937,1.485,0.959,1.773,1.201,0.516,0.936,0.861,��,6.8,��
2017/09/19,17:10,0.936,1.484,0.962,1.769,1.200,0.515,0.937,0.862,��,7.2,��
2017/09/19,17:20,0.936,1.484,0.960,1.771,1.202,0.515,0.936,0.861,��,6.9,��
2017/09/19,17:30,0.936,1.484,0.959,1.770,1.201,0.515,0.935,0.863,��,6.6,��
2017/09/19,17:40,0.937,1.482,0.961,1.769,1.201,0.514,0.937,0.862,��,6.5,��
2017/09/19,17:50,0.939,1.483,0.962,1.771,1.202,0.515,0.937,0.863,��,7.3,��
2017/09/19,18:00,0.937,1.483,0.962,1.773,1.203,0.515,0.937,0.863,��,6.7,��
2017/09/19,18:10,0.934,1.483,0.963,1.774,1.200,0.514,0.935,0.865,��,6.4,��
2017/09/19,18:20,0.936,1.486,0.962,1.772,1.203,0.514,0.937,0.862,��,6.9,��
2017/09/19,18:30,0.934,1.485,0.962,1.770,1.202,0.513,0.937,0.863,��,7.7,��
2017/09/19,18:40,0.935,1.486,0.964,1.772,1.207,0.516,0.939,0.863,��,7.6,��
2017/09/19,18:50,0.934,1.485,0.966,1.772,1.202,0.515,0.934,0.863,��,7.8,��
2017/09/19,19:00,0.935,1.487,0.964,1.769,1.203,0.514,0.938,0.862,��쐼,8.2,��
2017/09/19,19:10,0.933,1.488,0.964,1.774,1.202,0.515,0.937,0.862,��쐼,7.1,��
2017/09/19,19:20,0.932,1.484,0.964,1.774,1.205,0.516,0.937,0.864,�쐼,3.9,��
2017/09/19,19:30,0.935,1.487,0.964,1.774,1.205,0.515,0.937,0.863,��쐼,3.5,��
2017/09/19,19:40,0.936,1.487,0.964,1.773,1.206,0.516,0.936,0.862,��쐼,2.9,��
2017/09/19,19:50,0.936,1.486,0.964,1.773,1.206,0.515,0.937,0.863,��쐼,2.3,��
2017/09/19,20:00,0.936,1.484,0.963,1.773,1.205,0.516,0.939,0.863,��,1.4,��
2017/09/19,20:10,0.932,1.486,0.966,1.774,1.205,0.515,0.936,0.862,�k�k��,1.9,��
2017/09/19,20:20,0.939,1.486,0.963,1.772,1.204,0.515,0.935,0.863,�k��,1.9,��
2017/09/19,20:30,0.940,1.486,0.966,1.773,1.207,0.514,0.938,0.862,�k��,1.1,��
2017/09/19,20:40,0.938,1.485,0.963,1.772,1.206,0.515,0.937,0.863,���k��,1.2,��
2017/09/19,20:50,0.941,1.484,0.965,1.773,1.206,0.515,0.937,0.864,���k��,3.1,��
2017/09/19,21:00,0.939,1.485,0.966,1.774,1.207,0.514,0.935,0.863,���k��,3.8,��
2017/09/19,21:10,0.936,1.485,0.963,1.773,1.206,0.516,0.937,0.863,�k��,3.3,��
2017/09/19,21:20,0.939,1.484,0.965,1.770,1.205,0.514,0.937,0.863,�k��,3.3,��
2017/09/19,21:30,0.939,1.483,0.965,1.772,1.204,0.515,0.938,0.863,�k��,3.6,��
2017/09/19,21:40,0.939,1.482,0.964,1.773,1.203,0.513,0.938,0.865,���k��,2.9,��
2017/09/19,21:50,0.937,1.483,0.965,1.774,1.204,0.514,0.937,0.864,��,2.3,��
2017/09/19,22:00,0.939,1.485,0.966,1.774,1.205,0.514,0.937,0.864,���쐼,3.0,��
2017/09/19,22:10,0.942,1.484,0.964,1.772,1.203,0.513,0.938,0.862,���쐼,3.3,��
2017/09/19,22:20,0.939,1.484,0.966,1.770,1.205,0.515,0.938,0.863,���쐼,2.3,��
2017/09/19,22:30,0.938,1.483,0.964,1.772,1.205,0.515,0.938,0.862,�쐼,3.6,��
2017/09/19,22:40,0.939,1.487,0.963,1.769,1.205,0.516,0.938,0.864,���쐼,5.4,��
2017/09/19,22:50,0.938,1.484,0.961,1.774,1.205,0.514,0.938,0.864,��,4.1,��
2017/09/19,23:00,0.938,1.485,0.962,1.775,1.204,0.515,0.939,0.864,���k��,4.6,��
2017/09/19,23:10,0.939,1.485,0.964,1.773,1.205,0.515,0.938,0.861,���k��,4.9,��
2017/09/19,23:20,0.938,1.483,0.964,1.774,1.204,0.514,0.938,0.862,��,3.8,��
2017/09/19,23:30,0.940,1.484,0.964,1.774,1.203,0.513,0.937,0.865,��쐼,1.2,��
2017/09/19,23:40,0.940,1.483,0.965,1.772,1.205,0.513,0.939,0.864,���쐼,2.6,��
2017/09/19,23:50,0.942,1.483,0.965,1.772,1.205,0.513,0.938,0.864,���쐼,5.1,��
